Home > Weather > Canton > Past weeks

Flag for USA Past Weather in Canton, Ohio, USA — Yesterday and Last 2 Weeks

Now
89 °F

Broken clouds.


Feels Like: 94 °F
Forecast: 70 / 90 °F
Wind: 9 mph from West

Location: Akron-Canton Regional Airport

Current Time: Jul 24, 2016 at 12:38:47 PM

Latest Report: Jul 24, 2016 at 11:51 AM


Visibility: 10 mi

Pressure: 29.98 "Hg

Humidity: 53%

Dew Point: 70 °F

Location of CantonLocation

Past Weather in Canton — Graph

°F

Canton Temperature Yesterday

Maximum temperature yesterday: 94 °F (at 2:51 PM)
Minimum temperature yesterday: 71 °F (at 6:01 AM)
Average temperature yesterday: 82 °F

High & Low Weather Summary for the Past Weeks

 TemperatureHumidityPressure
High94 °F (Jul 23, 2:51 PM)93% (Jul 13, 10:51 PM)30.28 "Hg (Jul 13, 10:51 PM)
Low58 °F (Jul 20, 5:51 AM)30% (Jul 20, 1:51 PM)29.85 "Hg (Jul 14, 3:51 AM)
Average76 °F63%30.04 "Hg
* Reported Jul 9 10:51 AM — Jul 24 10:51 AM, Canton, Weather by CustomWeather, © 2016

Note: Actual official high and low records may vary slightly from our data, if they occured in-between our weather recording intervals... More about our weather records

Advertising

Canton Weather History for the Previous 24 Hours

Scroll right to see more
 ConditionsComfort  
Time TempWeatherWind HumidityBarometerVisibility
10:51 AM
Sun, Jul 24
86 °FPartly sunny.10 mph51%29.99 "Hg10 mi
9:51 AM84 °FBroken clouds.15 mph45%30.00 "Hg10 mi
8:51 AM80 °FPartly sunny.9 mph51%29.99 "Hg10 mi
7:51 AM75 °FBroken clouds.6 mph62%29.99 "Hg10 mi
6:51 AM73 °FPartly cloudy.6 mph66%29.99 "Hg10 mi
5:51 AM73 °FPartly cloudy.5 mph64%29.99 "Hg10 mi
4:51 AM72 °FPassing clouds.3 mph66%29.98 "Hg10 mi
3:51 AM74 °FPassing clouds.5 mph60%29.98 "Hg10 mi
2:51 AM75 °FPassing clouds.6 mph60%29.98 "Hg10 mi
1:51 AM75 °FPassing clouds.6 mph60%29.98 "Hg10 mi
12:51 AM76 °FPassing clouds.3 mph60%30.00 "Hg10 mi
11:51 PM
Sat, Jul 23
78 °FPartly cloudy.6 mph56%30.00 "Hg10 mi
10:51 PM77 °FPassing clouds.6 mph60%29.99 "Hg10 mi
9:51 PM79 °FPassing clouds.6 mph56%29.97 "Hg10 mi
8:51 PM82 °FPartly sunny.6 mph49%29.94 "Hg10 mi
7:51 PM85 °FPartly sunny.6 mph46%29.94 "Hg10 mi
6:51 PM90 °FPassing clouds.12 mph45%29.93 "Hg10 mi
5:51 PM93 °FPassing clouds.9 mph40%29.93 "Hg10 mi
4:51 PM93 °FPassing clouds.5 mph42%29.93 "Hg10 mi
3:51 PM91 °FScattered clouds.9 mph47%29.95 "Hg10 mi
2:51 PM94 °FScattered clouds.8 mph44%29.96 "Hg10 mi
1:51 PM92 °FScattered clouds.12 mph47%29.97 "Hg10 mi
12:51 PM89 °FPartly sunny.8 mph50%29.96 "Hg10 mi
Weather by CustomWeather, © 2016

See weather overviewHow to use our weather pages